Location: Chimay
(50.0486°N, 4.3171°E)
Time: 10:32:46
(UTC+00:00)

ERBS - Pass Details

Date: 08 August 2020
Orbit: 412 x 420 km, 57.0° (Epoch: 21 September)

Event Time Altitude Azimuth Distance (km) Brightness Sun altitude
Rises 20:32:38 0° 257° (WSW) 2,352 6.6 -11.4°
Reaches altitude 10° 20:34:47 10° 264° (W) 1,490 5.6 -11.6°
Maximum altitude 20:37:58 42° 337° (NNW) 610 3.6 -12.0°
Drops below altitude 10° 20:41:09 10° 50° (NE) 1,492 5.0 -12.4°
Sets 20:43:19 0° 58° (ENE) 2,356 5.9 -12.6°
